TimeCST,TemperatureF,Dew PointF,Humidity,Sea Level PressureIn,VisibilityMPH,Wind Direction,Wind SpeedMPH,Gust SpeedMPH,PrecipitationIn,Events,Conditions,WindDirDegrees,DateUTC
12:15 AM,26.6,24.8,93,30.11,10.0,East,5.8,-,N/A,,Clear,80,2012-11-30 06:15:00
12:35 AM,26.6,24.8,93,30.12,10.0,East,4.6,-,N/A,,Clear,90,2012-11-30 06:35:00
12:55 AM,26.6,24.8,93,30.13,10.0,Calm,Calm,-,N/A,,Mostly Cloudy,0,2012-11-30 06:55:00
1:15 AM,26.6,24.8,93,30.14,10.0,East,4.6,-,N/A,,Overcast,80,2012-11-30 07:15:00
1:35 AM,26.6,24.8,93,30.13,10.0,East,4.6,-,N/A,,Mostly Cloudy,80,2012-11-30 07:35:00
1:55 AM,24.8,21.2,86,30.14,10.0,Calm,Calm,-,N/A,,Scattered Clouds,0,2012-11-30 07:55:00
2:15 AM,24.8,23.0,93,30.14,7.0,Calm,Calm,-,N/A,,Clear,0,2012-11-30 08:15:00
2:35 AM,23.0,21.2,93,30.15,7.0,Calm,Calm,-,N/A,,Scattered Clouds,0,2012-11-30 08:35:00
2:55 AM,21.2,21.2,100,30.14,7.0,Calm,Calm,-,N/A,,Scattered Clouds,0,2012-11-30 08:55:00
3:15 AM,19.4,17.6,93,30.13,5.0,East,3.5,-,N/A,,Clear,80,2012-11-30 09:15:00
3:35 AM,19.4,19.4,100,30.13,5.0,Calm,Calm,-,N/A,,Mostly Cloudy,0,2012-11-30 09:35:00
3:55 AM,19.4,19.4,100,30.14,5.0,Calm,Calm,-,N/A,,Overcast,0,2012-11-30 09:55:00
4:15 AM,21.2,19.4,93,30.14,7.0,Calm,Calm,-,N/A,,Overcast,0,2012-11-30 10:15:00
4:35 AM,21.2,19.4,93,30.14,7.0,Calm,Calm,-,N/A,,Scattered Clouds,0,2012-11-30 10:35:00
4:54 AM,19.4,17.6,93,30.14,7.0,Calm,Calm,-,N/A,,Scattered Clouds,0,2012-11-30 10:54:00
5:15 AM,19.4,19.4,100,30.14,7.0,Calm,Calm,-,N/A,,Mostly Cloudy,0,2012-11-30 11:15:00
5:55 AM,21.2,19.4,93,30.15,7.0,Calm,Calm,-,N/A,,Overcast,0,2012-11-30 11:55:00
6:15 AM,23.0,21.2,93,30.14,10.0,ENE,4.6,-,N/A,,Overcast,70,2012-11-30 12:15:00
6:35 AM,24.8,23.0,93,30.14,10.0,East,6.9,-,N/A,,Overcast,90,2012-11-30 12:35:00
6:55 AM,24.8,21.2,86,30.15,10.0,ESE,4.6,-,N/A,,Overcast,110,2012-11-30 12:55:00
7:15 AM,24.8,23.0,93,30.15,7.0,ESE,4.6,-,N/A,,Overcast,110,2012-11-30 13:15:00
7:35 AM,24.8,23.0,93,30.15,7.0,ESE,4.6,-,N/A,,Overcast,110,2012-11-30 13:35:00
7:55 AM,24.8,23.0,93,30.16,7.0,SSE,3.5,-,N/A,,Overcast,150,2012-11-30 13:55:00
8:15 AM,26.6,24.8,93,30.16,7.0,SE,6.9,-,N/A,,Overcast,130,2012-11-30 14:15:00
8:35 AM,26.6,24.8,93,30.16,7.0,SE,6.9,-,N/A,,Overcast,130,2012-11-30 14:35:00
8:55 AM,26.6,24.8,93,30.16,7.0,SE,8.1,-,N/A,,Overcast,130,2012-11-30 14:55:00
9:15 AM,26.6,24.8,93,30.16,5.0,SE,9.2,-,N/A,,Overcast,130,2012-11-30 15:15:00
9:35 AM,26.6,24.8,93,30.17,5.0,SE,10.4,-,N/A,,Overcast,130,2012-11-30 15:35:00
9:55 AM,26.6,24.8,93,30.15,5.0,SE,12.7,-,N/A,,Overcast,130,2012-11-30 15:55:00
10:15 AM,26.6,24.8,93,30.16,5.0,SE,11.5,-,N/A,,Overcast,140,2012-11-30 16:15:00
10:35 AM,26.6,24.8,93,30.17,5.0,SE,12.7,-,N/A,,Overcast,140,2012-11-30 16:35:00
11:13 AM,28.4,26.6,93,30.15,5.0,SE,10.4,-,N/A,,Overcast,140,2012-11-30 17:13:00
11:32 AM,28.4,26.6,93,30.14,5.0,SE,11.5,-,N/A,,Overcast,140,2012-11-30 17:32:00
11:55 AM,30.2,26.6,86,30.13,5.0,SSE,9.2,-,N/A,,Overcast,150,2012-11-30 17:55:00
12:15 PM,30.2,26.6,86,30.10,5.0,SE,11.5,17.3,N/A,,Overcast,140,2012-11-30 18:15:00
12:35 PM,30.2,26.6,86,30.09,5.0,SE,15.0,-,N/A,,Overcast,130,2012-11-30 18:35:00
12:55 PM,32.0,26.6,80,30.08,7.0,SSE,11.5,17.3,N/A,,Overcast,150,2012-11-30 18:55:00
1:15 PM,32.0,26.6,80,30.08,7.0,SE,15.0,-,N/A,,Overcast,140,2012-11-30 19:15:00
1:35 PM,33.8,28.4,81,30.09,7.0,SSE,10.4,-,N/A,,Overcast,150,2012-11-30 19:35:00
1:55 PM,33.8,28.4,81,30.09,7.0,SE,13.8,-,N/A,,Overcast,130,2012-11-30 19:55:00
2:15 PM,33.8,28.4,81,30.08,5.0,SE,13.8,-,N/A,,Haze,130,2012-11-30 20:15:00
2:35 PM,33.8,28.4,81,30.06,5.0,SE,16.1,-,N/A,,Haze,140,2012-11-30 20:35:00
2:55 PM,33.8,28.4,81,30.05,4.0,SE,13.8,-,N/A,,Haze,130,2012-11-30 20:55:00
3:15 PM,33.8,28.4,81,30.04,4.0,SE,18.4,-,N/A,,Overcast,130,2012-11-30 21:15:00
3:35 PM,33.8,28.4,81,30.03,4.0,SE,17.3,-,N/A,,Overcast,130,2012-11-30 21:35:00
3:55 PM,33.8,28.4,81,30.03,4.0,SE,18.4,23.0,N/A,,Overcast,140,2012-11-30 21:55:00
4:15 PM,32.0,28.4,87,30.03,4.0,SE,17.3,23.0,N/A,,Overcast,130,2012-11-30 22:15:00
4:35 PM,32.0,28.4,87,30.02,4.0,SE,18.4,23.0,N/A,,Overcast,130,2012-11-30 22:35:00
4:55 PM,32.0,28.4,87,30.01,4.0,SE,19.6,-,N/A,,Overcast,140,2012-11-30 22:55:00
5:15 PM,32.0,28.4,87,30.01,3.0,SE,18.4,27.6,N/A,,Overcast,130,2012-11-30 23:15:00
5:35 PM,32.0,28.4,87,30.00,4.0,SE,21.9,26.5,N/A,,Overcast,130,2012-11-30 23:35:00
5:55 PM,33.8,30.2,87,29.99,3.0,SE,20.7,25.3,N/A,,Overcast,130,2012-11-30 23:55:00
6:15 PM,33.8,30.2,87,29.97,3.0,SE,21.9,26.5,N/A,,Overcast,130,2012-12-01 00:15:00
6:35 PM,33.8,30.2,87,29.96,3.0,SE,23.0,26.5,N/A,,Overcast,140,2012-12-01 00:35:00
6:55 PM,33.8,30.2,87,29.96,3.0,SE,18.4,26.5,N/A,,Overcast,140,2012-12-01 00:55:00
7:15 PM,33.8,30.2,87,29.94,3.0,SE,19.6,26.5,N/A,,Overcast,140,2012-12-01 01:15:00
7:35 PM,33.8,30.2,87,29.95,3.0,SE,16.1,-,N/A,,Overcast,140,2012-12-01 01:35:00
7:55 PM,33.8,30.2,87,29.94,3.0,SE,18.4,26.5,N/A,,Overcast,140,2012-12-01 01:55:00
8:15 PM,33.8,30.2,87,29.94,3.0,SE,18.4,25.3,N/A,,Overcast,140,2012-12-01 02:15:00
8:35 PM,33.8,30.2,87,29.93,3.0,SE,18.4,-,N/A,,Scattered Clouds,140,2012-12-01 02:35:00
8:55 PM,33.8,30.2,87,29.92,3.0,SE,19.6,25.3,N/A,,Clear,130,2012-12-01 02:55:00
9:15 PM,33.8,30.2,87,29.91,3.0,SE,19.6,26.5,N/A,,Clear,130,2012-12-01 03:15:00
9:35 PM,33.8,30.2,87,29.92,3.0,SE,20.7,26.5,N/A,,Clear,140,2012-12-01 03:35:00
9:55 PM,33.8,30.2,87,29.92,3.0,SE,19.6,27.6,N/A,,Clear,140,2012-12-01 03:55:00
10:15 PM,33.8,30.2,87,29.91,3.0,SE,18.4,25.3,N/A,,Clear,140,2012-12-01 04:15:00
10:35 PM,33.8,30.2,87,29.91,3.0,SE,19.6,24.2,N/A,,Clear,140,2012-12-01 04:35:00
10:55 PM,33.8,30.2,87,29.89,3.0,SE,20.7,-,N/A,,Clear,140,2012-12-01 04:55:00
11:15 PM,33.8,30.2,87,29.89,3.0,SE,21.9,28.8,N/A,,Clear,140,2012-12-01 05:15:00
11:35 PM,33.8,30.2,87,29.88,3.0,SE,18.4,26.5,N/A,,Clear,130,2012-12-01 05:35:00
11:55 PM,33.8,30.2,87,29.86,3.0,SE,21.9,26.5,N/A,,Clear,130,2012-12-01 05:55:00